Location: Finkenwalde
(53.3770°N, 14.6418°E)
Time: 01:09:45
(UTC+00:00)

BREEZE-M DEB (TANK) - Pass Details

Date: 05 February 2023
Orbit: 426 x 13838 km, 45.9° (Epoch: 19 March)

Event Time Altitude Azimuth Distance (km) Brightness Sun altitude
Rises 17:02:13 0° 251° (WSW) 2,411 7.7 -10.7°
Reaches altitude 10° 17:03:54 10° 240° (WSW) 1,670 6.1 -11.0°
Maximum altitude 17:06:54 34° 171° (S) 1,105 3.9 -11.4°
Enters shadow 17:13:03 10° 108° (ESE) 3,483 5.8 -12.3°
